Indianapolis, IN

3:26 PM EDT on September 22, 2019 (GMT -0400)
Indianapolis International

Weather History for KIND - July, 2019

Change the Weather History Date:

Thursday, July 18, 2019

  Actual Average Record
Temperature  
Mean Temperature 84 °F 76 °F  
Max Temperature 93 °F 85 °F 100 °F (1954)
Min Temperature 74 °F 66 °F 51 °F (1976)
Degree Days  
Heating Degree Days 0 0  
Month to date heating degree days 0 0  
Since 1 June heating degree days 9 16  
Since 1 July heating degree days 0 0  
Cooling Degree Days 19 11  
Month to date cooling degree days 268 195  
Year to date cooling degree days 582 505  
Since 1 June cooling degree days 471 421  
Growing Degree Days 33 (Base 50)    
Moisture  
Dew Point 74 °F    
Average Humidity 76    
Maximum Humidity 100    
Minimum Humidity 52    
Precipitation  
Precipitation 0.00 in 0.15 in 2.71 in (2016)
Month to date precipitation 2.33 2.84  
Year to date precipitation 31.48 24.49  
Snow  
Snow 0.00 in 0.00 in 0.00 in ()
Month to date snowfall 0.0 0.0  
Since 1 June snowfall 0.0 0.0  
Since 1 July snowfall 0.0 0.0  
Snow Depth 0.00 in    
Sea Level Pressure  
Sea Level Pressure 29.91 in    
Wind  
Wind Speed 9 mph (SSW)    
Max Wind Speed 21 mph    
Max Gust Speed 28 mph    
Visibility 10 miles    
Events      
T = Trace of Precipitation, MM = Missing Value Source: NWS Daily Summary

Daily Weather History Graph

Daily Weather History Graph

Search for Another Location

Airport or City:

Astronomy

Jul. 18, 2019 Rise Set
Actual Time 6:31 AM EDT 9:10 PM EDT
Civil Twilight 6:00 AM EDT 9:41 PM EDT
Nautical Twilight 5:21 AM EDT 10:20 PM EDT
Astronomical Twilight 4:36 AM EDT 11:04 PM EDT
Moon 10:35 PM EDT (7/18) 8:00 AM EDT (7/18)
Length of Visible Light 15h 41m
Length of Day
14h 38m
Full, 97% of the Moon is Illuminated
Jul 18
Full
Jul 24
Last Quarter
Jul 31
New
Aug 7
First Quarter
Aug 15
Full

Hourly Weather History & Observations

Time (EDT) Temp. Heat Index Dew Point Humidity Pressure Visibility Wind Dir Wind Speed Gust Speed Precip Events Conditions
12:54 AM 79.0 °F - 73.9 °F 84% 29.92 in 10.0 mi SSW 3.5 mph - N/A   Mostly Cloudy
1:54 AM 78.1 °F - 73.9 °F 87% 29.91 in 10.0 mi South 5.8 mph - N/A   Scattered Clouds
2:54 AM 75.9 °F - 73.9 °F 94% 29.91 in 10.0 mi Calm Calm - N/A   Scattered Clouds
3:54 AM 75.0 °F - 73.9 °F 96% 29.90 in 10.0 mi SE 3.5 mph - N/A   Partly Cloudy
5:54 AM 73.9 °F - 73.0 °F 97% 29.91 in 10.0 mi SSW 3.5 mph - N/A   Scattered Clouds
6:54 AM 75.0 °F - 73.0 °F 94% 29.93 in 10.0 mi Calm Calm - N/A   Mostly Cloudy
7:54 AM 75.9 °F - 73.9 °F 94% 29.94 in 10.0 mi SSW 6.9 mph - N/A   Mostly Cloudy
8:52 AM 78.8 °F - 75.2 °F 89% 29.97 in 9.0 mi SW 4.6 mph - N/A   Mostly Cloudy
8:54 AM 78.1 °F - 75.0 °F 90% 29.95 in 9.0 mi SW 5.8 mph - N/A   Mostly Cloudy
9:54 AM 81.0 °F 87.3 °F 75.9 °F 85% 29.94 in 9.0 mi SW 8.1 mph - N/A   Scattered Clouds
10:54 AM 84.0 °F 92.6 °F 75.9 °F 76% 29.94 in 9.0 mi WSW 8.1 mph - N/A   Scattered Clouds
11:54 AM 88.0 °F 95.6 °F 73.0 °F 61% 29.95 in 10.0 mi West 6.9 mph - N/A   Mostly Cloudy
12:54 PM 88.0 °F 95.6 °F 73.0 °F 61% 29.95 in 10.0 mi West 9.2 mph - N/A   Scattered Clouds
1:54 PM 90.0 °F 97.9 °F 73.0 °F 57% 29.94 in 10.0 mi West 9.2 mph - N/A   Scattered Clouds
2:54 PM 91.0 °F 100.4 °F 73.9 °F 57% 29.93 in 10.0 mi Variable 4.6 mph - N/A   Scattered Clouds
3:54 PM 91.0 °F 100.4 °F 73.9 °F 57% 29.91 in 10.0 mi SW 4.6 mph - N/A   Scattered Clouds
4:54 PM 91.9 °F 99.5 °F 72.0 °F 52% 29.86 in 10.0 mi SSW 12.7 mph - N/A   Partly Cloudy
5:54 PM 91.0 °F 100.4 °F 73.9 °F 57% 29.85 in 10.0 mi SSE 13.8 mph - N/A   Partly Cloudy
6:54 PM 90.0 °F 99.0 °F 73.9 °F 59% 29.83 in 10.0 mi SSW 17.3 mph - N/A   Partly Cloudy
7:54 PM 88.0 °F 98.5 °F 75.9 °F 67% 29.84 in 10.0 mi SSW 15.0 mph - N/A   Partly Cloudy
8:54 PM 86.0 °F 96.0 °F 75.9 °F 72% 29.85 in 10.0 mi SSW 12.7 mph - N/A   Partly Cloudy
9:54 PM 84.0 °F 91.9 °F 75.0 °F 74% 29.86 in 10.0 mi SSW 16.1 mph - N/A   Partly Cloudy
10:54 PM 82.0 °F 88.6 °F 75.0 °F 79% 29.88 in 10.0 mi SW 15.0 mph 27.6 mph N/A   Scattered Clouds
11:54 PM 81.0 °F 86.7 °F 75.0 °F 82% 29.90 in 10.0 mi SW 13.8 mph 21.9 mph N/A   Scattered Clouds